STRIX-6

导读

STRIX-6(NORAD编号68291)是日本Synspective公司Strix卫星星座的第六颗合成孔径雷达(SAR)卫星,于2026年3月19日由Rocket Lab公司Electron火箭在新西兰发射升空。该卫星运行于近地轨道,依托先进SAR遥感技术,可不受昼夜、天气条件限制获取地球表面高分辨率图像,主要服务于城市安全监测、灾害应急响应、地理信息测绘等领域,助力全球灾害管理和基础设施安全监控,是Synspective商业SAR星座组网的重要组成部分,进一步拓展了全球高频次对地观测能力。

Basic Information
目录编号:
68291
目录名称:
STRIX-6
国际标识:
2026-056A
轨道中心:
EARTH
卫星名称:
STRIX-6
卫星全名:
STRIX-6
卫星状态:
在轨 (已飞行169 天)
发射日期:
2026-03-20 UTC
国别 :
日本 (JP)
星等 :
--
Orbit Information
数据来源 国际轨道数据 AOE轨道数据
星历时间 2026-09-04T23:37:48+0800
15小时前
查看轨道信息
2026-09-03T09:00:00+0800
2天前
查看轨道信息
半长轴 6943.309km 6943.299km
偏心率 0.0016284 0.0016252
轨道倾角 50.284° 50.284°
近地点辐角 191.300° 185.867°
升交点赤经 334.044° 341.658°
平近点角 168.758° 113.120°
近地点 553.865km 553.877km
远地点 576.479km 576.447km
周期 95.964分钟 95.964分钟
每日圈数 15.005591 15.005621
Detailed Information
使用方式:
暂无
2D Orbit Map
3D Orbit Map
Orbit Altitude Analysis Chart
Orbit Inclination Analysis Chart
Orbit Comprehensive Analysis Chart
View Comprehensive Chart
Conjunction Data List
Event ID Objects TCA Miss Dist (km) Collision Risk Probability Collision Risk Index (CRI) Action
CDM_260907-074005-596006-829121
STRIX-6 (68291)
2026-09-07T
07:40:36+0000
2.279 km
极远距离
1.930907E-6 低风险 0.41